{"data":{"norad_id":58853,"epoch":"2026-05-24T18:58:55.703136Z","epoch_age_seconds":83219,"freshness":"FRESH","line1":"1 58853U 24019A   26144.79092249 -.00000537  00000+0 -99789-5 0  9997","line2":"2 58853  43.0014 178.9207 0001202 283.5869  76.4849 15.27572532130723","mean_motion":15.27572532,"eccentricity":0.0001202,"inclination_deg":43.0014,"raan_deg":178.9207,"arg_perigee_deg":283.5869,"mean_anomaly_deg":76.4849,"bstar":-9.9789e-6,"rev_number":13072,"period_min":94.267209565143,"perigee_km":482.2467407527,"apogee_km":483.89617526601,"semimajor_km":6861.2084580094,"source":"CELESTRAK","updated_at":"2026-05-25T13:38:18.757279Z"}}